Tracking 25954 objects as of 14-Aug-2022
HD Live streaming from Space Station
objects crossing your sky now

HETE 2

Track HETE 2 now!
10-day predictions
HETE 2 is classified as:


NORAD ID: 26561
Int'l Code: 2000-061A
Perigee: 530.3 km
Apogee: 554.2 km
Inclination: 1.9 °
Period: 95.3 minutes
Semi major axis: 6913 km
RCS: 0.631 m2 (medium)
Launch date: October 9, 2000
Source: United States (US)
Launch site: Kwajalein (KWAJ)

Designed to detect and localize gamma-ray bursts.
aabbcc
Your satellite tracking list
Your tracking list is empty




NASA's NSSDC Master Catalog

Two Line Element Set (TLE):
1 26561U 00061A   22225.55866376  .00003683  00000-0  16280-3 0  9996
2 26561   1.9485 262.6471 0017336 257.8854 101.9245 15.10353244199533
Source of the keplerian elements: AFSPC